Regional Weather Roundup
Issued by NWS

Home | Current Version | Previous Version | Graphics & Text | Print | Product List | Glossary On
Versions: 1 2 3 4 5 6 7 8 9 10 11 12 13 14 15 16 17 18 19 20 21 22 23 24 25 26 27 28 29 30 31 32 33 34 35 36 37 38 39 40 41 42 43 44 45 46 47 48 49 50
000
ASUS43 KLSX 270710
RWRMO

WEATHER SUMMARY FOR MISSOURI
NATIONAL WEATHER SERVICE SPRINGFIELD MO
200 AM CDT TUE SEP 27 2016

NOTE: "FAIR" INDICATES FEW OR NO CLOUDS BELOW 12,000 FEET WITH NO
       SIGNIFICANT WEATHER AND/OR OBSTRUCTIONS TO VISIBILITY.
       CURRENT SKY AND/OR WEATHER CONDITIONS ARE NOT AVAILABLE FOR
       CHILLICOTHE AND FARMINGTON.

MOZ001>031-035>038-043-044-053-054-270800-
...NORTHERN AND WESTERN MISSOURI...

CITY           SKY/WX    TMP DP  RH WIND       PRES   REMARKS
KANSAS CTY INT CLEAR     55  45  68 SW7       30.09S
KANSAS C DTWN  CLEAR     60  48  64 SW3       30.09S
LEE`S SUMMIT   CLEAR     57  47  69 SW7       30.10F
ST JOSEPH      CLEAR     54  48  80 CALM      30.08S
CHILLICOTHE      N/A     58  47  66 SW3       30.07F
KIRKSVILLE     CLEAR     55  45  68 W5        30.05F

$$
MOZ066>068-077>081-088>096-101>105-270800-
...SOUTHWEST MISSOURI...

CITY           SKY/WX    TMP DP  RH WIND       PRES   REMARKS
SPRINGFIELD    CLEAR     51  44  77 S3        30.14S
JOPLIN         CLEAR     50  47  89 CALM      30.16S
BRANSON        CLOUDY    50  45  81 SW3       30.17S

$$
MOZ032>034-039>042-045>050-055>058-069>072-270800-
...CENTRAL MISSOURI...

CITY           SKY/WX    TMP DP  RH WIND       PRES   REMARKS
COLUMBIA       CLEAR     57  43  59 W9        30.09F
JEFFERSON CITY CLEAR     50  48  93 E3        30.09F
ROLLA          CLEAR     50  46  86 SW7       30.10F
SEDALIA        CLEAR     57  45  64 SW9       30.10F
WHITEMAN AFB   CLEAR     55  46  69 SW8       30.09S
OSAGE BEACH    CLEAR     49  47  93 CALM      30.12F FOG

$$
MOZ051-052-059>065-270800-
...EAST CENTRAL MISSOURI...

CITY           SKY/WX    TMP DP  RH WIND       PRES   REMARKS
ST LOUIS INTL  CLEAR     59  43  55 SW5       30.07F
SPIRIT OF STL  CLEAR     50  49  96 CALM      30.07F
ST CHARLES     CLEAR     51  49  92 CALM      30.06F

$$
MOZ072>076-082>087-097>100-106>115-270800-
...SOUTH CENTRAL AND SOUTHEAST MISSOURI...

CITY           SKY/WX    TMP DP  RH WIND       PRES   REMARKS
CAPE GIRARDEAU CLEAR     48  47  96 CALM      30.09F FOG
FARMINGTON     CLEAR     48  47  96 CALM      30.11F
POPLAR BLUFF   PTCLDY    51  50  96 N3        30.10F
WEST PLAINS    CLEAR     50  44  80 CALM      30.15F

$$




USA.gov is the U.S. government's official web portal to all federal, state and local government web resources and services.